Time,TemperatureF,DewpointF,PressureIn,WindDirection,WindDirectionDegrees,WindSpeedMPH,WindSpeedGustMPH,Humidity,HourlyPrecipIn,Conditions,Clouds,dailyrainin,SolarRadiationWatts/m^2,SoftwareType,DateUTC
2013-03-30 00:01:00,46.0,41.0,-100.00,NE,48,4.0,12.0,82,0.00,,,0.03,0.000000,,2013-03-30 07:01:00,
2013-03-30 00:32:00,46.0,41.0,-100.00,NE,48,4.0,12.0,82,0.00,,,0.03,0.000000,,2013-03-30 07:32:00,
2013-03-30 00:42:00,46.0,41.0,-100.00,NE,48,4.0,12.0,82,0.00,,,0.03,0.000000,,2013-03-30 07:42:00,
2013-03-30 00:52:00,46.0,41.0,-100.00,NE,48,4.0,12.0,82,0.00,,,0.03,0.000000,,2013-03-30 07:52:00,
2013-03-30 01:01:00,45.0,40.0,-100.00,NNE,31,5.0,13.0,83,0.00,,,0.03,0.000000,,2013-03-30 08:01:00,
2013-03-30 01:22:00,45.0,40.0,-100.00,NNE,31,5.0,13.0,83,0.00,,,0.03,0.000000,,2013-03-30 08:22:00,
2013-03-30 01:32:00,45.0,40.0,-100.00,NNE,31,5.0,13.0,83,0.00,,,0.03,0.000000,,2013-03-30 08:32:00,
2013-03-30 01:42:00,45.0,40.0,-100.00,NNE,31,5.0,13.0,83,0.00,,,0.03,0.000000,,2013-03-30 08:42:00,
2013-03-30 01:53:00,45.0,40.0,-100.00,NNE,31,5.0,13.0,83,0.00,,,0.03,0.000000,,2013-03-30 08:53:00,
2013-03-30 02:01:00,44.0,40.0,-100.00,NNE,23,6.0,11.0,87,0.00,,,0.03,0.000000,,2013-03-30 09:01:00,
2013-03-30 02:33:00,44.0,40.0,-100.00,NNE,23,6.0,11.0,87,0.00,,,0.03,0.000000,,2013-03-30 09:33:00,
2013-03-30 02:43:00,44.0,40.0,-100.00,NNE,23,6.0,11.0,87,0.00,,,0.03,0.000000,,2013-03-30 09:43:00,
2013-03-30 02:53:00,44.0,40.0,-100.00,NNE,23,6.0,11.0,87,0.00,,,0.03,0.000000,,2013-03-30 09:53:00,
2013-03-30 03:01:00,43.0,40.0,-100.00,North,8,8.0,11.0,90,0.00,,,0.03,0.000000,,2013-03-30 10:01:00,
2013-03-30 03:23:00,43.0,40.0,-100.00,North,8,8.0,11.0,90,0.00,,,0.03,0.000000,,2013-03-30 10:23:00,
2013-03-30 03:33:00,43.0,40.0,-100.00,North,8,8.0,11.0,90,0.00,,,0.03,0.000000,,2013-03-30 10:33:00,
2013-03-30 03:42:00,43.0,40.0,-100.00,North,8,8.0,11.0,90,0.00,,,0.03,0.000000,,2013-03-30 10:42:00,
2013-03-30 03:52:00,43.0,40.0,-100.00,North,8,8.0,11.0,90,0.00,,,0.03,0.000000,,2013-03-30 10:52:00,
2013-03-30 04:01:00,41.0,39.0,-100.00,NE,35,4.0,10.0,93,0.00,,,0.01,0.000000,,2013-03-30 11:01:00,
2013-03-30 04:33:00,41.0,39.0,-100.00,NE,35,4.0,10.0,93,0.00,,,0.01,0.000000,,2013-03-30 11:33:00,
2013-03-30 04:42:00,41.0,39.0,-100.00,NE,35,4.0,10.0,93,0.00,,,0.01,0.000000,,2013-03-30 11:42:00,
2013-03-30 04:53:00,41.0,39.0,-100.00,NE,35,4.0,10.0,93,0.00,,,0.01,0.000000,,2013-03-30 11:53:00,
2013-03-30 05:01:00,41.0,40.0,-100.00,NE,40,6.0,11.0,96,0.00,,,0.00,0.000000,,2013-03-30 12:01:00,
2013-03-30 05:33:00,41.0,40.0,-100.00,NE,40,6.0,11.0,96,0.00,,,0.00,0.000000,,2013-03-30 12:33:00,
2013-03-30 05:42:00,41.0,40.0,-100.00,NE,40,6.0,11.0,96,0.00,,,0.00,0.000000,,2013-03-30 12:42:00,
2013-03-30 05:53:00,41.0,40.0,-100.00,NE,40,6.0,11.0,96,0.00,,,0.00,0.000000,,2013-03-30 12:53:00,
2013-03-30 06:01:00,40.0,39.0,-100.00,NNE,30,5.0,13.0,97,0.00,,,0.00,0.000000,,2013-03-30 13:01:00,
2013-03-30 06:32:00,40.0,39.0,-100.00,NNE,30,5.0,13.0,97,0.00,,,0.00,0.000000,,2013-03-30 13:32:00,
2013-03-30 06:43:00,40.0,39.0,-100.00,NNE,30,5.0,13.0,97,0.00,,,0.00,0.000000,,2013-03-30 13:43:00,
2013-03-30 06:52:00,40.0,39.0,-100.00,NNE,30,5.0,13.0,97,0.00,,,0.00,0.000000,,2013-03-30 13:52:00,
2013-03-30 07:01:00,39.0,39.0,-100.00,NE,36,6.0,13.0,100,0.00,,,0.00,0.000000,,2013-03-30 14:01:00,
2013-03-30 07:23:00,39.0,39.0,-100.00,NE,36,6.0,13.0,100,0.00,,,0.00,0.000000,,2013-03-30 14:23:00,
2013-03-30 07:32:00,39.0,39.0,-100.00,NE,36,6.0,13.0,100,0.00,,,0.00,0.000000,,2013-03-30 14:32:00,
2013-03-30 07:42:00,39.0,39.0,-100.00,NE,36,6.0,13.0,100,0.00,,,0.00,0.000000,,2013-03-30 14:42:00,
2013-03-30 07:52:00,39.0,39.0,-100.00,NE,36,6.0,13.0,100,0.00,,,0.00,0.000000,,2013-03-30 14:52:00,
2013-03-30 08:01:00,40.0,40.0,-100.00,NNE,30,5.0,11.0,100,0.00,,,0.00,0.000000,,2013-03-30 15:01:00,
2013-03-30 08:34:00,40.0,40.0,-100.00,NNE,30,5.0,11.0,100,0.00,,,0.00,0.000000,,2013-03-30 15:34:00,
2013-03-30 08:43:00,40.0,40.0,-100.00,NNE,30,5.0,11.0,100,0.00,,,0.00,0.000000,,2013-03-30 15:43:00,
2013-03-30 08:53:00,40.0,40.0,-100.00,NNE,30,5.0,11.0,100,0.00,,,0.00,0.000000,,2013-03-30 15:53:00,
2013-03-30 09:01:00,43.0,40.0,-100.00,NNE,28,7.0,15.0,89,0.00,,,0.00,67.000000,,2013-03-30 16:01:00,
2013-03-30 09:33:00,43.0,40.0,-100.00,NNE,28,7.0,15.0,89,0.00,,,0.00,67.000000,,2013-03-30 16:33:00,
2013-03-30 09:43:00,43.0,40.0,-100.00,NNE,28,7.0,15.0,89,0.00,,,0.00,67.000000,,2013-03-30 16:43:00,
2013-03-30 09:52:00,43.0,40.0,-100.00,NNE,28,7.0,15.0,89,0.00,,,0.00,67.000000,,2013-03-30 16:52:00,
2013-03-30 10:01:00,45.0,41.0,-100.00,NNE,22,5.0,13.0,85,0.00,,,0.00,254.000000,,2013-03-30 17:01:00,
2013-03-30 10:33:00,45.0,41.0,-100.00,NNE,22,5.0,13.0,85,0.00,,,0.00,254.000000,,2013-03-30 17:33:00,
2013-03-30 10:42:00,45.0,41.0,-100.00,NNE,22,5.0,13.0,85,0.00,,,0.00,254.000000,,2013-03-30 17:42:00,
2013-03-30 10:52:00,45.0,41.0,-100.00,NNE,22,5.0,13.0,85,0.00,,,0.00,254.000000,,2013-03-30 17:52:00,
2013-03-30 11:01:00,47.0,41.0,-100.00,NNE,14,6.0,10.0,79,0.00,,,0.00,448.000000,,2013-03-30 18:01:00,
2013-03-30 11:33:00,47.0,41.0,-100.00,NNE,14,6.0,10.0,79,0.00,,,0.00,448.000000,,2013-03-30 18:33:00,
2013-03-30 11:42:00,47.0,41.0,-100.00,NNE,14,6.0,10.0,79,0.00,,,0.00,448.000000,,2013-03-30 18:42:00,
2013-03-30 11:53:00,47.0,41.0,-100.00,NNE,14,6.0,10.0,79,0.00,,,0.00,448.000000,,2013-03-30 18:53:00,
2013-03-30 12:01:00,49.0,42.0,-100.00,NNE,13,7.0,13.0,76,0.00,,,0.00,624.000000,,2013-03-30 19:01:00,
2013-03-30 12:32:00,49.0,42.0,-100.00,NNE,13,7.0,13.0,76,0.00,,,0.00,624.000000,,2013-03-30 19:32:00,
2013-03-30 12:42:00,49.0,42.0,-100.00,NNE,13,7.0,13.0,76,0.00,,,0.00,624.000000,,2013-03-30 19:42:00,
2013-03-30 12:53:00,49.0,42.0,-100.00,NNE,13,7.0,13.0,76,0.00,,,0.00,624.000000,,2013-03-30 19:53:00,
2013-03-30 13:01:00,51.0,41.0,-100.00,NNE,28,6.0,12.0,69,0.00,,,0.00,753.000000,,2013-03-30 20:01:00,
2013-03-30 13:33:00,51.0,41.0,-100.00,NNE,28,6.0,12.0,69,0.00,,,0.00,753.000000,,2013-03-30 20:33:00,
2013-03-30 13:43:00,51.0,41.0,-100.00,NNE,28,6.0,12.0,69,0.00,,,0.00,753.000000,,2013-03-30 20:43:00,
2013-03-30 13:53:00,51.0,41.0,-100.00,NNE,28,6.0,12.0,69,0.00,,,0.00,753.000000,,2013-03-30 20:53:00,
2013-03-30 14:01:00,58.0,46.0,-100.00,NNE,29,5.0,11.0,64,0.00,,,0.00,831.000000,,2013-03-30 21:01:00,
2013-03-30 14:34:00,58.0,46.0,-100.00,NNE,29,5.0,11.0,64,0.00,,,0.00,831.000000,,2013-03-30 21:34:00,
2013-03-30 14:43:00,58.0,46.0,-100.00,NNE,29,5.0,11.0,64,0.00,,,0.00,831.000000,,2013-03-30 21:43:00,
2013-03-30 14:53:00,58.0,46.0,-100.00,NNE,29,5.0,11.0,64,0.00,,,0.00,831.000000,,2013-03-30 21:53:00,
2013-03-30 15:01:00,57.0,43.0,-100.00,NNW,338,6.0,13.0,60,0.00,,,0.00,854.000000,,2013-03-30 22:01:00,
2013-03-30 15:33:00,57.0,43.0,-100.00,NNW,338,6.0,13.0,60,0.00,,,0.00,854.000000,,2013-03-30 22:33:00,
2013-03-30 15:43:00,57.0,43.0,-100.00,NNW,338,6.0,13.0,60,0.00,,,0.00,854.000000,,2013-03-30 22:43:00,
2013-03-30 15:53:00,57.0,43.0,-100.00,NNW,338,6.0,13.0,60,0.00,,,0.00,854.000000,,2013-03-30 22:53:00,
2013-03-30 16:01:00,60.0,44.0,-100.00,NE,35,5.0,13.0,56,0.00,,,0.00,812.000000,,2013-03-30 23:01:00,
2013-03-30 16:22:00,60.0,44.0,-100.00,NE,35,5.0,13.0,56,0.00,,,0.00,812.000000,,2013-03-30 23:22:00,
2013-03-30 16:33:00,60.0,44.0,-100.00,NE,35,5.0,13.0,56,0.00,,,0.00,812.000000,,2013-03-30 23:33:00,
2013-03-30 16:43:00,60.0,44.0,-100.00,NE,35,5.0,13.0,56,0.00,,,0.00,812.000000,,2013-03-30 23:43:00,
2013-03-30 16:53:00,60.0,44.0,-100.00,NE,35,5.0,13.0,56,0.00,,,0.00,812.000000,,2013-03-30 23:53:00,
2013-03-30 17:01:00,59.0,44.0,-100.00,NNE,32,5.0,13.0,58,0.00,,,0.00,715.000000,,2013-03-31 00:01:00,
2013-03-30 17:32:00,59.0,44.0,-100.00,NNE,32,5.0,13.0,58,0.00,,,0.00,715.000000,,2013-03-31 00:32:00,
2013-03-30 17:43:00,59.0,44.0,-100.00,NNE,32,5.0,13.0,58,0.00,,,0.00,715.000000,,2013-03-31 00:43:00,
2013-03-30 17:52:00,59.0,44.0,-100.00,NNE,32,5.0,13.0,58,0.00,,,0.00,715.000000,,2013-03-31 00:52:00,
2013-03-30 18:01:00,61.0,46.0,-100.00,NE,38,5.0,12.0,57,0.00,,,0.00,569.000000,,2013-03-31 01:01:00,
2013-03-30 18:22:00,61.0,46.0,-100.00,NE,38,5.0,12.0,57,0.00,,,0.00,569.000000,,2013-03-31 01:22:00,
2013-03-30 18:32:00,61.0,46.0,-100.00,NE,38,5.0,12.0,57,0.00,,,0.00,569.000000,,2013-03-31 01:32:00,
2013-03-30 18:43:00,61.0,46.0,-100.00,NE,38,5.0,12.0,57,0.00,,,0.00,569.000000,,2013-03-31 01:43:00,
2013-03-30 18:52:00,61.0,46.0,-100.00,NE,38,5.0,12.0,57,0.00,,,0.00,569.000000,,2013-03-31 01:52:00,
2013-03-30 19:01:00,59.0,45.0,-100.00,NNE,33,6.0,11.0,60,0.00,,,-99.99,386.000000,,2013-03-31 02:01:00,
2013-03-30 19:22:00,59.0,45.0,-100.00,NNE,33,6.0,11.0,60,0.00,,,-99.99,386.000000,,2013-03-31 02:22:00,
2013-03-30 19:33:00,59.0,45.0,-100.00,NNE,33,6.0,11.0,60,0.00,,,-99.99,386.000000,,2013-03-31 02:33:00,
2013-03-30 19:43:00,59.0,45.0,-100.00,NNE,33,6.0,11.0,60,0.00,,,-99.99,386.000000,,2013-03-31 02:43:00,
2013-03-30 19:52:00,59.0,45.0,-100.00,NNE,33,6.0,11.0,60,0.00,,,-99.99,386.000000,,2013-03-31 02:52:00,
2013-03-30 20:01:00,55.0,-99.9,-100.00,SW,226,6.0,12.0,65,0.00,,,0.00,188.000000,,2013-03-31 03:01:00,
2013-03-30 20:33:00,55.0,43.0,-100.00,SW,226,6.0,12.0,65,0.00,,,0.00,188.000000,,2013-03-31 03:33:00,
2013-03-30 20:43:00,55.0,43.0,-100.00,SW,226,6.0,12.0,65,0.00,,,0.00,188.000000,,2013-03-31 03:43:00,
2013-03-30 20:54:00,55.0,43.0,-100.00,SW,226,6.0,12.0,65,0.00,,,0.00,188.000000,,2013-03-31 03:54:00,
2013-03-30 21:01:00,51.0,40.0,-100.00,NNE,23,8.0,15.0,66,0.00,,,0.00,24.000000,,2013-03-31 04:01:00,
2013-03-30 21:33:00,51.0,40.0,-100.00,NNE,23,8.0,15.0,66,0.00,,,0.00,24.000000,,2013-03-31 04:33:00,
2013-03-30 21:42:00,51.0,40.0,-100.00,NNE,23,8.0,15.0,66,0.00,,,0.00,24.000000,,2013-03-31 04:42:00,
2013-03-30 21:52:00,51.0,40.0,-100.00,NNE,23,8.0,15.0,66,0.00,,,0.00,24.000000,,2013-03-31 04:52:00,
2013-03-30 22:01:00,52.0,40.0,-100.00,North,5,10.0,15.0,64,0.00,,,0.00,0.000000,,2013-03-31 05:01:00,
2013-03-30 22:22:00,52.0,40.0,-100.00,North,5,10.0,15.0,64,0.00,,,0.00,0.000000,,2013-03-31 05:22:00,
2013-03-30 22:32:00,52.0,40.0,-100.00,North,5,10.0,15.0,64,0.00,,,0.00,0.000000,,2013-03-31 05:32:00,
2013-03-30 22:42:00,52.0,40.0,-100.00,North,5,10.0,15.0,64,0.00,,,0.00,0.000000,,2013-03-31 05:42:00,
2013-03-30 22:53:00,52.0,40.0,-100.00,North,5,10.0,15.0,64,0.00,,,0.00,0.000000,,2013-03-31 05:53:00,
2013-03-30 23:01:00,51.0,39.0,-100.00,North,9,10.0,15.0,64,0.00,,,0.00,0.000000,,2013-03-31 06:01:00,
2013-03-30 23:33:00,51.0,39.0,-100.00,North,9,10.0,15.0,64,0.00,,,0.00,0.000000,,2013-03-31 06:33:00,
2013-03-30 23:42:00,51.0,39.0,-100.00,North,9,10.0,15.0,64,0.00,,,0.00,0.000000,,2013-03-31 06:42:00,
2013-03-30 23:52:00,51.0,39.0,-100.00,North,9,10.0,15.0,64,0.00,,,0.00,0.000000,,2013-03-31 06:52:00,